STARLINK-5048 (53911 NORAD) Tracking and Keplerian Element Data

This shows tracking and keplerian element data for the satellite.

Feedback or suggestion? Click here.




ElementValue
Catalog53911
NameSTARLINK-5048
Epoch Orbit945
Epoch Day325.25001157
Epoch Year2022
RAAN329.5032
Inclination53.2141
Eccentricity0.0004279
Argument of Perigee5.0215
Mean Anonmoly94.4973
Mean Motion15.73195242
Decay Rate4.934E-05
L11 53911U 22119AB 22325.25001157 .00004934 00000+0 39579-4 0 9995
L22 53911 53.2141 329.5032 0004279 5.0215 94.4973 15.73195242 9459



Live tracking and technical data element details for STARLINK-5048 (NORAD 53911). STARLINK-5048 can be tracked NOW for your location showing map with azimuth and elevation plus other details from your city location.







IsCatalogInMostPopularTable: catalog: 53911, numindb: 1
Update: records affected: 1



GetName: 53911 STARLINK-5048

Hit Count: updated at: Fri, 09 Dec 2022 20:27:10 GMT